When you browse on this site, cookies collect data to enhance your experience and personalize the content and advertising you see.
Visit our Privacy Policy to learn more. By continuing to use the site, you agree to this use of cookies and data.
  • In Lithuania
  • List of Countries
  • For 7 days
  • Water Temperature
  • Weather Map
  • Weather Widgets
  • user-avatar
    Login

    Hourly Weather Maceio

    Today, 20 September, Friday

    Time Temperature Precipitation Wind Pressure Humidity
    00:00 +23°C° 0.1 mm 5 mps 761 mmHg 89%
    01:00 +22°C° 0.1 mm 5 mps 760 mmHg 89%
    02:00 +22°C° 0 mm 4 mps 760 mmHg 89%
    03:00 +22°C° 0 mm 4 mps 760 mmHg 89%
    04:00 +21°C° 0 mm 3 mps 760 mmHg 89%
    05:00 +21°C° 0 mm 3 mps 760 mmHg 89%
    06:00 +22°C° 0 mm 3 mps 761 mmHg 88%
    07:00 +23°C° 0 mm 2 mps 761 mmHg 88%
    08:00 +25°C° 0.1 mm 3 mps 761 mmHg 80%
    09:00 +27°C° 0.1 mm 4 mps 761 mmHg 72%
    10:00 +29°C° 0.1 mm 4 mps 761 mmHg 64%
    11:00 +29°C° 0.3 mm 5 mps 761 mmHg 67%
    12:00 +28°C° 0.3 mm 5 mps 761 mmHg 71%
    13:00 +28°C° 0.3 mm 6 mps 761 mmHg 75%
    14:00 +28°C° 0.1 mm 6 mps 761 mmHg 73%
    15:00 +28°C° 0.1 mm 6 mps 760 mmHg 71%
    16:00 +28°C° 0.1 mm 6 mps 760 mmHg 68%
    17:00 +27°C° 0 mm 6 mps 760 mmHg 72%
    18:00 +26°C° 0 mm 5 mps 761 mmHg 76%
    19:00 +25°C° 0 mm 4 mps 761 mmHg 80%
    20:00 +23°C° 0 mm 4 mps 761 mmHg 82%
    21:00 +23°C° 0 mm 4 mps 762 mmHg 84%
    22:00 +22°C° 0 mm 4 mps 762 mmHg 86%
    23:00 +22°C° 0 mm 4 mps 761 mmHg 88%

    Tomorrow, 21 September, Saturday

    Time Temperature Precipitation Wind Pressure Humidity
    00:00 +22°C° 0 mm 4 mps 761 mmHg 90%
    01:00 +22°C° 0 mm 3 mps 761 mmHg 91%
    02:00 +22°C° 0 mm 3 mps 760 mmHg 92%
    03:00 +21°C° 0 mm 3 mps 760 mmHg 92%
    04:00 +21°C° 0 mm 3 mps 760 mmHg 92%
    05:00 +22°C° 0.1 mm 3 mps 760 mmHg 92%
    06:00 +22°C° 0.1 mm 3 mps 761 mmHg 91%
    07:00 +24°C° 0.1 mm 3 mps 761 mmHg 91%
    08:00 +25°C° 0.2 mm 4 mps 761 mmHg 85%
    09:00 +27°C° 0.2 mm 4 mps 761 mmHg 78%
    10:00 +29°C° 0.2 mm 5 mps 762 mmHg 72%
    11:00 +29°C° 0 mm 5 mps 761 mmHg 67%
    12:00 +30°C° 0 mm 5 mps 761 mmHg 62%
    13:00 +32°C° 0 mm 5 mps 760 mmHg 57%
    14:00 +30°C° 0 mm 5 mps 760 mmHg 60%
    15:00 +30°C° 0 mm 5 mps 760 mmHg 63%
    16:00 +29°C° 0 mm 5 mps 759 mmHg 65%
    17:00 +28°C° 0.2 mm 5 mps 760 mmHg 73%
    18:00 +26°C° 0.2 mm 4 mps 760 mmHg 81%
    19:00 +25°C° 0.2 mm 4 mps 760 mmHg 89%
    20:00 +23°C° 0.2 mm 4 mps 760 mmHg 90%
    21:00 +23°C° 0.2 mm 4 mps 760 mmHg 91%
    22:00 +23°C° 0.2 mm 5 mps 761 mmHg 92%
    23:00 +23°C° 0.1 mm 4 mps 760 mmHg 92%

    Day after tomorrow, 22 September, Sunday

    Time Temperature Precipitation Wind Pressure Humidity
    00:00 +23°C° 0.1 mm 4 mps 760 mmHg 92%
    01:00 +22°C° 0.1 mm 4 mps 760 mmHg 92%
    02:00 +22°C° 0.1 mm 4 mps 760 mmHg 92%
    03:00 +22°C° 0.1 mm 3 mps 760 mmHg 92%
    04:00 +22°C° 0.1 mm 3 mps 759 mmHg 93%
    05:00 +22°C° 0.1 mm 3 mps 760 mmHg 92%
    06:00 +24°C° 0.1 mm 3 mps 760 mmHg 92%
    07:00 +24°C° 0.1 mm 3 mps 761 mmHg 91%
    08:00 +25°C° 0.1 mm 4 mps 761 mmHg 85%
    09:00 +27°C° 0.1 mm 4 mps 761 mmHg 79%
    10:00 +28°C° 0.1 mm 4 mps 762 mmHg 73%
    11:00 +29°C° 0 mm 5 mps 761 mmHg 67%
    12:00 +30°C° 0 mm 5 mps 761 mmHg 61%
    13:00 +32°C° 0 mm 5 mps 760 mmHg 55%
    14:00 +32°C° 0 mm 5 mps 760 mmHg 56%
    15:00 +30°C° 0 mm 5 mps 760 mmHg 57%
    16:00 +30°C° 0 mm 5 mps 759 mmHg 58%
    17:00 +28°C° 0 mm 4 mps 760 mmHg 67%
    18:00 +26°C° 0 mm 4 mps 760 mmHg 77%
    19:00 +25°C° 0 mm 4 mps 760 mmHg 86%
    20:00 +23°C° 0.1 mm 4 mps 761 mmHg 88%
    21:00 +23°C° 0.1 mm 4 mps 761 mmHg 90%
    22:00 +23°C° 0.1 mm 4 mps 761 mmHg 92%
    23:00 +23°C° 0.1 mm 4 mps 761 mmHg 92%

    23 September, Monday

    Time Temperature Precipitation Wind Pressure Humidity
    00:00 +23°C° 0.1 mm 4 mps 761 mmHg 92%
    01:00 +23°C° 0.1 mm 5 mps 761 mmHg 92%
    02:00 +23°C° 0.1 mm 4 mps 761 mmHg 92%
    03:00 +23°C° 0.1 mm 4 mps 761 mmHg 92%
    04:00 +23°C° 0.1 mm 4 mps 760 mmHg 93%
    05:00 +23°C° 0.1 mm 4 mps 761 mmHg 92%
    06:00 +23°C° 0.1 mm 4 mps 761 mmHg 92%
    07:00 +25°C° 0.1 mm 4 mps 761 mmHg 91%
    08:00 +26°C° 0.1 mm 5 mps 762 mmHg 85%
    09:00 +27°C° 0.1 mm 5 mps 762 mmHg 79%
    10:00 +29°C° 0.1 mm 5 mps 762 mmHg 73%
    11:00 +29°C° 0.1 mm 6 mps 762 mmHg 70%
    12:00 +30°C° 0.1 mm 6 mps 762 mmHg 66%
    13:00 +30°C° 0.1 mm 6 mps 761 mmHg 63%
    14:00 +30°C° 0 mm 6 mps 761 mmHg 63%
    15:00 +30°C° 0 mm 5 mps 761 mmHg 64%
    16:00 +29°C° 0 mm 5 mps 760 mmHg 64%
    17:00 +28°C° 0 mm 5 mps 761 mmHg 71%
    18:00 +26°C° 0 mm 5 mps 761 mmHg 77%
    19:00 +25°C° 0 mm 4 mps 761 mmHg 84%
    20:00 +25°C° 0 mm 4 mps 762 mmHg 84%
    21:00 +23°C° 0 mm 4 mps 762 mmHg 85%
    22:00 +23°C° 0 mm 4 mps 762 mmHg 85%
    23:00 +23°C° 0 mm 4 mps 762 mmHg 87%

    24 September, Tuesday

    Time Temperature Precipitation Wind Pressure Humidity
    00:00 +23°C° 0 mm 4 mps 762 mmHg 88%
    01:00 +22°C° 0 mm 3 mps 761 mmHg 89%
    02:00 +22°C° 0 mm 3 mps 761 mmHg 89%
    03:00 +22°C° 0 mm 3 mps 761 mmHg 89%
    04:00 +22°C° 0 mm 3 mps 761 mmHg 89%
    05:00 +22°C° 0.1 mm 3 mps 761 mmHg 89%
    06:00 +24°C° 0.1 mm 3 mps 761 mmHg 89%
    07:00 +24°C° 0.1 mm 3 mps 761 mmHg 88%
    08:00 +26°C° 0.1 mm 4 mps 762 mmHg 79%
    09:00 +28°C° 0.1 mm 4 mps 762 mmHg 70%
    10:00 +29°C° 0.1 mm 4 mps 762 mmHg 61%
    11:00 +30°C° 0.2 mm 5 mps 761 mmHg 61%
    12:00 +30°C° 0.2 mm 5 mps 761 mmHg 62%
    13:00 +30°C° 0.2 mm 6 mps 761 mmHg 62%
    14:00 +30°C° 0.3 mm 5 mps 760 mmHg 65%
    15:00 +29°C° 0.3 mm 5 mps 760 mmHg 67%
    16:00 +29°C° 0.3 mm 5 mps 759 mmHg 70%
    17:00 +27°C° 0.2 mm 5 mps 760 mmHg 76%
    18:00 +26°C° 0.2 mm 5 mps 760 mmHg 82%
    19:00 +25°C° 0.2 mm 5 mps 760 mmHg 89%
    20:00 +23°C° 0.2 mm 4 mps 761 mmHg 89%
    21:00 +23°C° 0.2 mm 4 mps 761 mmHg 90%
    22:00 +23°C° 0.2 mm 4 mps 761 mmHg 90%
    23:00 +23°C° 0.1 mm 4 mps 761 mmHg 90%

    25 September, Wednesday

    Time Temperature Precipitation Wind Pressure Humidity
    00:00 +23°C° 0.1 mm 4 mps 761 mmHg 91%
    01:00 +22°C° 0.1 mm 3 mps 760 mmHg 91%
    02:00 +22°C° 0.1 mm 3 mps 760 mmHg 91%
    03:00 +22°C° 0.1 mm 3 mps 760 mmHg 92%
    04:00 +22°C° 0.1 mm 3 mps 759 mmHg 92%
    05:00 +22°C° 0 mm 3 mps 759 mmHg 92%
    06:00 +24°C° 0 mm 3 mps 760 mmHg 91%
    07:00 +23°C° 0 mm 4 mps 760 mmHg 91%
    08:00 +25°C° 0.1 mm 4 mps 760 mmHg 86%
    09:00 +26°C° 0.1 mm 4 mps 760 mmHg 81%
    10:00 +28°C° 0.1 mm 4 mps 761 mmHg 75%
    11:00 +28°C° 0 mm 4 mps 760 mmHg 72%
    12:00 +29°C° 0 mm 4 mps 760 mmHg 68%
    13:00 +30°C° 0 mm 4 mps 759 mmHg 65%
    14:00 +30°C° 0 mm 5 mps 759 mmHg 66%
    15:00 +29°C° 0 mm 5 mps 759 mmHg 67%
    16:00 +29°C° 0 mm 6 mps 758 mmHg 68%
    17:00 +28°C° 0 mm 6 mps 758 mmHg 74%
    18:00 +26°C° 0 mm 5 mps 759 mmHg 80%
    19:00 +25°C° 0 mm 5 mps 759 mmHg 86%
    20:00 +25°C° 0 mm 5 mps 759 mmHg 87%
    21:00 +23°C° 0 mm 5 mps 760 mmHg 89%
    22:00 +23°C° 0 mm 5 mps 760 mmHg 91%
    23:00 +23°C° 0 mm 5 mps 760 mmHg 91%
    Show more